Location: *
(34.8620°S, 39.3380°E)
Time: 23:48:53
(UTC+00:00)

SKYSAT 2 - Pass Details

Date: 02 December 2023
Orbit: 613 x 623 km, 98.3° (Epoch: 26 February)

Event Time Altitude Azimuth Distance (km) Brightness Sun altitude
Exits shadow 21:06:19 10° 244° (WSW) 2,021 ? -33.1°
Drops below altitude 10° 21:06:19 10° 244° (WSW) 2,022 ? -33.1°
Sets 21:09:39 0° 216° (SW) 2,940 ? -33.1°
